QPF
0.00 0.00 0.00 0.00 0.00 0.00 0.00 0.00 0.00 0.00 0.00 0.00 0.00 0.00 0.00 0.00 0.00 0.00 0.00 0.00 0.00 0.00 0.00 0.00 0.00 0.00 0.00 0.00 0.00 0.00 0.00 0.00 0.00 0.00 0.00 0.00 0.00 0.00 0.00 0.00 0.00 0.00 0.00
0.00 0.00 0.00 0.00 0.00 0.00 0.00 0.00 0.00 0.00 0.00 0.00 0.00 0.00 0.00 0.00 0.00 0.00 0.00 0.00 0.00 0.00 0.00 0.00 0.00 0.00 0.00 0.00 0.00 0.00 0.00 0.00 0.00 0.00 0.00 0.00 0.00 0.00 0.00 0.00 0.00 0.00 0.00
0.00 0.00 0.00 0.00 0.00 0.00 0.00 0.00 0.00 0.00 0.00 0.00 0.00 0.00 0.00 0.00 0.00 0.00 0.00 0.00 0.00 0.00 0.00 0.00 0.00 0.00 0.00 0.00 0.00 0.00 0.00 0.00 0.00 0.00 0.00 0.00 0.00 0.00 0.00 0.00 0.00 0.00 0.00
0.00 0.00 0.00 0.00 0.00 0.00 0.00 0.00 0.00 0.00 0.00 0.00 0.00 0.00 0.00 0.00 0.00 0.00 0.00 0.00 0.00 0.00 0.00 0.00 0.00 0.00 0.00 0.00 0.00 0.00 0.00 0.00 0.00 0.00 0.00 0.00 0.00 0.00 0.00 0.00 0.00 0.00 0.00
0.00 0.00 0.00 0.00 0.00 0.00 0.00 0.00 0.00 0.00 0.00 0.00 0.00 0.00 0.00 0.00 0.00 0.00 0.00 0.00 0.00 0.00 0.00 0.00 0.00 0.00 0.00 0.00 0.00 0.00 0.00 0.00 0.00 0.00 0.00 0.00 0.00 0.00 0.00 0.00 0.00 0.00 0.00
0.00 0.00 0.00 0.00 0.00 0.00 0.00 0.00 0.00 0.00 0.00 0.00 0.00 0.00 0.00 0.00 0.00 0.00 0.00 0.00 0.00 0.00 0.00 0.00 0.00 0.00 0.00 0.00 0.00 0.00 0.00 0.00 0.00 0.00 0.00 0.00 0.00 0.00 0.00 0.00 0.00 0.00 0.00
0.00 0.00 0.00 0.00 0.00 0.00 0.00 0.00 0.00 0.00 0.00 0.00 0.00 0.00 0.00 0.00 0.00 0.00 0.00 0.00 0.00 0.00 0.00 0.00 0.00 0.00 0.00 0.00 0.00 0.00 0.00 0.00 0.00 0.00 0.00 0.00 0.00 0.00 0.00 0.00 0.00 0.00 0.00
0.00 0.00 0.00 0.00 0.00 0.00 0.00 0.00 0.00 0.00 0.00 0.00 0.00 0.00 0.00 0.00 0.00 0.00 0.00 0.00 0.00 0.00 0.00 0.00 0.00 0.00 0.00 0.00 0.00 0.00 0.00 0.00 0.00 0.00 0.00 0.00 0.00 0.00 0.00 0.00 0.00 0.00 0.00
0.00 0.00 0.00 0.00 0.00 0.00 0.00 0.00 0.00 0.00 0.00 0.00 0.00 0.00 0.00 0.00 0.00 0.00 0.00 0.00 0.00 0.00 0.00 0.00 0.00 0.00 0.00 0.00 0.00 0.00 0.00 0.00 0.00 0.00 0.00 0.00 0.00 0.00 0.00 0.00 0.00 0.00 0.00
0.00 0.00 0.00 0.00 0.00 0.00 0.00 0.00 0.00 0.00 0.00 0.00 0.00 0.00 0.00 0.00 0.00 0.00 0.00 0.00 0.00 0.00 0.00 0.00 0.00 0.00 0.00 0.00 0.00 0.00 0.00 0.00 0.00 0.00 0.00 0.00 0.00 0.00 0.00 0.00 0.00 0.00 0.00
0.00 0.00 0.00 0.00 0.00 0.00 0.00 0.00 0.00 0.00 0.00 0.00 0.00 0.00 0.00 0.00 0.00 0.00 0.00 0.00 0.00 0.00 0.00 0.00 0.00 0.00 0.00 0.00 0.00 0.00 0.00 0.00 0.00 0.00 0.00 0.00 0.00 0.00 0.00 0.00 0.00 0.00 0.00
0.00 0.00 0.00 0.00 0.00 0.00 0.00 0.00 0.00 0.00 0.00 0.00 0.00 0.00 0.00 0.00 0.00 0.00 0.00 0.00 0.00 0.00 0.00 0.00 0.00 0.00 0.00 0.00 0.00 0.00 0.00 0.00 0.00 0.00 0.00 0.00 0.00 0.00 0.00 0.00 0.00 0.00 0.00
0.00 0.00 0.00 0.00 0.00 0.00 0.00 0.00 0.00 0.00 0.00 0.00 0.00 0.00 0.00 0.00 0.00 0.00 0.00 0.00 0.00 0.00 0.00 0.00 0.00 0.00 0.00 0.00 0.00 0.00 0.00 0.00 0.00 0.00 0.00 0.00 0.00 0.00 0.00 0.00 0.00 0.00 0.00
0.00 0.00 0.00 0.00 0.00 0.00 0.00 0.00 0.00 0.00 0.00 0.00 0.00 0.00 0.00 0.00 0.00 0.00 0.00 0.00 0.00 0.00 0.00 0.00 0.00 0.00 0.00 0.00 0.00 0.00 0.00 0.00 0.00 0.00 0.00 0.00 0.00 0.00 0.00 0.00 0.00 0.00 0.00
0.00 0.00 0.00 0.00 0.00 0.00 0.00 0.00 0.00 0.00 0.00 0.00 0.00 0.00 0.00 0.00 0.00 0.00 0.00 0.00 0.00 0.00 0.00 0.00 0.00 0.00 0.00 0.00 0.00 0.00 0.00 0.00 0.00 0.00 0.00 0.00 0.00 0.00 0.00 0.00 0.00 0.00 0.00
0.00 0.00 0.00 0.00 0.00 0.00 0.00 0.00 0.00 0.00 0.00 0.00 0.00 0.00 0.00 0.00 0.00 0.00 0.00 0.00 0.00 0.00 0.00 0.00 0.00 0.00 0.00 0.00 0.00 0.00 0.00 0.00 0.00 0.00 0.00 0.00 0.00 0.00 0.00 0.00 0.00 0.00 0.00
0.00 0.00 0.00 0.00 0.00 0.00 0.00 0.00 0.00 0.00 0.00 0.00 0.00 0.00 0.00 0.00 0.00 0.00 0.00 0.00 0.00 0.00 0.00 0.00 0.00 0.00 0.00 0.00 0.00 0.00 0.00 0.00 0.00 0.00 0.00 0.00 0.00 0.00 0.00 0.00 0.00 0.00 0.00
0.00 0.00 0.00 0.00 0.00 0.00 0.00 0.00 0.00 0.00 0.00 0.00 0.00 0.00 0.00 0.00 0.00 0.00 0.00 0.00 0.00 0.00 0.00 0.00 0.00 0.00 0.00 0.00 0.00 0.00 0.00 0.00 0.00 0.00 0.00 0.00 0.00 0.00 0.00 0.00 0.00 0.00 0.00
0.00 0.00 0.00 0.00 0.00 0.00 0.00 0.00 0.00 0.00 0.00 0.00 0.00 0.00 0.00 0.00 0.00 0.00 0.00 0.00 0.00 0.00 0.00 0.00 0.00 0.00 0.00 0.00 0.00 0.00 0.00 0.00 0.00 0.00 0.00 0.00 0.00 0.00 0.00 0.00 0.00 0.00 0.00
0.00 0.00 0.00 0.00 0.00 0.00 0.00 0.00 0.00 0.00 0.00 0.00 0.00 0.00 0.00 0.00 0.00 0.00 0.00 0.00 0.00 0.00 0.00 0.00 0.00 0.00 0.00 0.00 0.00 0.00 0.00 0.00 0.00 0.00 0.00 0.00 0.00 0.00 0.00 0.00 0.00 0.00 0.00
0.00 0.00 0.00 0.00 0.00 0.00 0.00 0.00 0.00 0.00 0.00 0.00 0.00 0.00 0.00 0.00 0.00 0.00 0.00 0.00 0.00 0.00 0.00 0.00 0.00 0.00 0.00 0.00 0.00 0.00 0.00 0.00 0.00 0.00 0.00 0.00 0.00 0.00 0.00 0.00 0.00 0.00 0.00
0.00 0.00 0.00 0.00 0.00 0.00 0.00 0.00 0.00 0.00 0.00 0.00 0.00 0.00 0.00 0.00 0.00 0.00 0.00 0.00 0.00 0.00 0.00 0.00 0.00 0.00 0.00 0.00 0.00 0.00 0.00 0.00 0.00 0.00 0.00 0.00 0.00 0.00 0.00 0.00 0.00 0.00 0.00
0.00 0.00 0.00 0.00 0.00 0.00 0.00 0.00 0.00 0.00 0.00 0.00 0.00 0.00 0.00 0.00 0.00 0.00 0.00 0.00 0.00 0.00 0.00 0.00 0.00 0.00 0.00 0.00 0.00 0.00 0.00 0.00 0.00 0.00 0.00 0.00 0.00 0.00 0.00 0.00 0.00 0.00 0.00
0.00 0.00 0.00 0.00 0.00 0.00 0.00 0.00 0.00 0.00 0.00 0.00 0.00 0.00 0.00 0.00 0.00 0.00 0.00 0.00 0.00 0.00 0.00 0.00 0.00 0.00 0.00 0.00 0.00 0.00 0.00 0.00 0.00 0.00 0.00 0.00 0.00 0.00 0.00 0.00 0.00 0.00 0.00
0.00 0.00 0.00 0.00 0.00 0.00 0.00 0.00 0.00 0.00 0.00 0.00 0.00 0.00 0.00 0.00 0.00 0.00 0.00 0.00 0.00 0.00 0.00 0.00 0.00 0.00 0.00 0.00 0.00 0.00 0.00 0.00 0.00 0.00 0.00 0.00 0.00 0.00 0.00 0.00 0.00 0.00 0.00
0.00 0.00 0.00 0.00 0.00 0.00 0.00 0.00 0.00 0.00 0.00 0.00 0.00 0.00 0.00 0.00 0.00 0.00 0.00 0.00 0.00 0.00 0.00 0.00 0.00 0.00 0.00 0.00 0.00 0.00 0.00 0.00 0.00 0.00 0.00 0.00 0.00 0.00 0.00 0.00 0.00 0.00 0.00
MSLP
1024.82 1024.96 1025.04 1025.19 1025.29 1025.39 1025.52 1025.64 1025.55 1025.40 1025.32 1025.30 1025.25 1025.17 1025.23 1025.13 1024.99 1024.76 1024.53 1024.54 1024.46 1024.46 1024.43 1024.39 1024.39 1024.03 1023.74 1023.67 1023.44 1023.02 1022.61 1022.29 1021.27 1019.72 1019.54 1018.71 1017.87 1016.99 1016.08 1015.31 1014.46 1013.60 1012.60
1025.10 1025.21 1025.37 1025.52 1025.67 1025.85 1025.94 1025.92 1025.85 1025.72 1025.63 1025.70 1025.70 1025.95 1025.92 1025.83 1025.60 1025.42 1025.22 1025.08 1025.02 1024.91 1024.97 1024.85 1024.81 1024.47 1024.25 1024.26 1023.90 1023.42 1022.96 1022.57 1022.10 1020.40 1019.73 1018.86 1018.20 1017.24 1016.29 1015.28 1014.25 1013.48 1012.63
1025.35 1025.55 1025.78 1025.94 1026.08 1026.20 1026.24 1026.24 1026.11 1025.99 1026.01 1026.05 1026.38 1026.65 1026.51 1026.41 1026.25 1026.07 1025.92 1025.62 1025.57 1025.53 1025.44 1025.34 1025.34 1025.04 1024.85 1024.45 1024.47 1024.17 1023.47 1023.01 1022.46 1021.42 1020.00 1019.39 1018.45 1017.52 1016.27 1015.31 1014.42 1013.44 1012.63
1025.38 1025.77 1026.02 1026.29 1026.47 1026.55 1026.55 1026.59 1026.39 1026.10 1026.42 1026.47 1026.96 1027.35 1027.04 1026.72 1026.49 1026.45 1026.38 1026.31 1026.24 1026.16 1026.04 1025.70 1025.63 1025.80 1025.60 1024.81 1024.34 1024.29 1023.62 1023.20 1022.54 1021.66 1020.67 1019.78 1019.07 1017.97 1017.23 1015.94 1014.15 1013.93 1012.49
1025.44 1025.88 1026.26 1026.58 1026.72 1026.84 1026.79 1026.60 1026.51 1026.42 1026.59 1027.20 1027.37 1027.76 1027.51 1027.01 1026.65 1026.74 1026.76 1026.66 1026.58 1026.38 1026.29 1026.26 1026.11 1026.24 1025.94 1025.16 1024.72 1024.38 1023.93 1023.50 1022.84 1022.19 1021.33 1020.47 1019.56 1018.57 1017.92 1016.99 1015.52 1013.51 1012.33
1025.71 1026.13 1026.43 1026.70 1026.83 1026.91 1026.91 1026.86 1026.90 1026.89 1027.02 1027.41 1028.01 1028.40 1028.05 1027.41 1027.24 1027.17 1027.23 1027.02 1027.08 1026.67 1026.38 1026.61 1026.33 1026.32 1026.15 1025.35 1024.98 1024.61 1024.49 1023.81 1023.34 1022.80 1022.16 1021.28 1020.45 1019.85 1018.89 1017.78 1016.38 1014.55 1011.51
1026.07 1026.57 1026.72 1026.88 1026.97 1027.17 1027.30 1027.15 1027.14 1027.43 1027.57 1027.90 1028.01 1028.47 1028.37 1027.81 1027.48 1027.61 1027.82 1027.44 1027.25 1027.04 1026.86 1026.83 1026.57 1026.52 1026.15 1025.37 1024.91 1024.76 1024.52 1024.17 1023.81 1023.34 1022.76 1022.06 1021.15 1020.30 1019.17 1017.90 1016.91 1015.64 1013.55
1026.29 1026.70 1027.08 1027.15 1027.38 1027.60 1027.68 1027.60 1027.46 1027.67 1028.08 1028.34 1028.55 1028.67 1028.72 1028.16 1027.56 1027.75 1028.10 1027.93 1027.65 1027.57 1027.39 1027.43 1027.20 1026.81 1025.97 1025.17 1025.07 1025.27 1024.99 1024.63 1023.97 1023.46 1023.06 1022.31 1021.38 1020.32 1019.57 1018.53 1017.35 1015.93 1013.74
1026.40 1026.85 1027.24 1027.37 1027.62 1027.77 1027.84 1027.94 1027.87 1027.98 1028.18 1028.45 1028.75 1029.08 1029.05 1029.01 1027.93 1028.06 1028.36 1028.26 1027.85 1027.93 1027.84 1027.83 1027.62 1026.93 1026.00 1025.41 1025.86 1025.91 1025.40 1024.80 1024.66 1024.19 1023.55 1022.54 1021.55 1020.76 1019.78 1018.60 1017.41 1016.14 1013.81
1026.71 1027.09 1027.46 1027.61 1027.75 1027.99 1028.07 1028.27 1028.29 1028.36 1028.50 1028.66 1028.95 1029.36 1029.49 1029.28 1028.57 1028.75 1028.67 1028.65 1028.36 1028.46 1028.22 1028.05 1027.70 1027.14 1026.81 1026.44 1026.36 1026.05 1025.72 1025.26 1024.98 1024.14 1023.39 1022.33 1021.45 1020.67 1019.93 1019.33 1018.18 1016.86 1015.39
1027.08 1027.49 1027.67 1027.85 1028.19 1028.36 1028.50 1028.45 1028.61 1028.84 1029.08 1029.18 1029.30 1029.81 1029.91 1029.65 1029.58 1029.39 1028.82 1028.77 1028.79 1029.28 1028.91 1028.78 1028.67 1027.91 1027.51 1027.18 1026.85 1026.59 1026.37 1025.99 1025.59 1024.84 1023.87 1022.78 1021.73 1020.78 1019.90 1019.14 1018.44 1017.54 1015.84
1027.44 1027.94 1027.94 1028.17 1028.50 1028.83 1028.99 1029.04 1029.00 1029.11 1029.73 1029.69 1030.01 1030.38 1030.45 1030.46 1030.16 1029.83 1029.24 1029.13 1029.21 1029.77 1029.78 1029.75 1029.29 1028.53 1028.13 1028.04 1027.59 1027.09 1026.95 1026.88 1026.39 1025.59 1024.65 1023.59 1022.44 1021.22 1020.19 1019.22 1018.11 1017.06 1016.08
1027.56 1028.20 1028.52 1028.52 1028.59 1029.04 1029.28 1029.56 1029.57 1029.67 1030.10 1030.48 1030.70 1030.78 1031.01 1031.10 1030.92 1030.10 1029.86 1029.82 1029.84 1030.31 1030.46 1030.08 1029.50 1029.30 1029.11 1029.18 1028.49 1028.13 1028.07 1027.70 1027.07 1026.36 1025.65 1024.71 1023.75 1022.46 1020.96 1019.51 1018.18 1016.87 1015.13
1027.93 1028.39 1029.05 1029.16 1028.96 1029.24 1029.71 1029.87 1030.05 1030.32 1030.69 1030.84 1030.96 1031.44 1031.63 1031.24 1030.66 1030.40 1030.44 1030.80 1030.61 1031.08 1031.26 1031.28 1030.50 1030.35 1030.02 1030.02 1029.87 1029.30 1028.94 1028.54 1028.05 1027.43 1026.54 1025.40 1024.18 1022.87 1021.69 1020.50 1018.90 1017.06 1015.23
1028.27 1028.80 1029.31 1029.65 1029.59 1029.86 1030.20 1030.23 1030.33 1030.54 1030.48 1030.74 1031.44 1031.68 1031.76 1031.22 1030.77 1030.29 1030.28 1030.92 1030.73 1030.89 1032.18 1032.52 1031.90 1031.42 1031.11 1030.81 1030.52 1030.23 1029.75 1029.28 1028.65 1027.96 1027.09 1026.05 1024.87 1023.69 1022.47 1021.26 1020.00 1018.46 1017.28
1028.48 1029.18 1029.60 1029.89 1030.15 1030.45 1030.68 1030.66 1030.19 1030.21 1030.31 1030.60 1030.75 1031.28 1031.90 1031.03 1030.56 1030.49 1030.46 1031.02 1030.79 1031.41 1033.05 1033.78 1033.28 1032.80 1032.39 1031.99 1031.57 1031.01 1030.43 1029.95 1029.39 1028.61 1027.71 1026.83 1025.81 1024.65 1023.29 1021.86 1020.78 1019.49 1017.95
1028.84 1029.53 1029.93 1030.44 1030.94 1031.32 1031.44 1031.53 1031.61 1031.40 1030.94 1031.07 1031.28 1031.22 1031.21 1030.92 1030.86 1030.90 1030.96 1031.73 1031.63 1032.66 1033.79 1034.24 1034.12 1033.80 1033.35 1032.66 1032.20 1031.77 1031.23 1030.61 1029.98 1029.22 1028.49 1027.60 1026.59 1025.39 1024.12 1022.68 1021.48 1020.24 1018.64
1029.53 1030.09 1030.69 1031.26 1031.55 1031.82 1032.21 1032.77 1033.08 1033.05 1032.96 1032.93 1032.45 1031.85 1031.81 1031.38 1031.29 1031.45 1031.72 1033.02 1033.23 1033.25 1033.88 1034.63 1034.61 1034.06 1033.52 1033.12 1032.62 1032.13 1031.55 1030.92 1030.26 1029.66 1028.96 1028.20 1027.23 1026.17 1024.83 1023.51 1022.31 1021.14 1019.71
1030.37 1030.87 1031.07 1031.33 1031.63 1032.09 1032.60 1033.13 1033.50 1033.96 1033.91 1034.08 1033.82 1032.87 1033.28 1032.22 1031.95 1032.29 1032.55 1033.80 1034.31 1034.60 1034.23 1034.36 1034.13 1033.84 1033.50 1033.16 1032.73 1032.27 1031.76 1031.17 1030.61 1030.01 1029.36 1028.63 1027.72 1026.76 1025.53 1024.30 1023.10 1021.87 1020.58
1030.56 1030.84 1031.16 1031.75 1032.43 1032.96 1033.28 1033.97 1034.25 1034.33 1034.40 1034.54 1034.53 1034.33 1034.19 1034.14 1034.00 1033.60 1033.73 1033.95 1034.09 1034.13 1034.10 1034.05 1033.86 1033.73 1033.52 1033.19 1032.67 1032.12 1031.57 1031.04 1030.53 1030.05 1029.50 1028.84 1027.98 1027.11 1026.02 1024.75 1023.60 1022.57 1021.31
1030.69 1031.21 1031.69 1032.29 1032.75 1033.02 1033.36 1033.95 1034.12 1034.32 1034.44 1034.50 1034.42 1033.86 1033.74 1033.84 1034.02 1033.85 1033.80 1033.80 1033.80 1033.68 1033.64 1033.51 1033.43 1033.35 1033.07 1032.79 1032.56 1031.96 1031.50 1031.02 1030.51 1030.03 1029.49 1028.86 1028.12 1027.17 1026.13 1025.01 1023.96 1022.96 1021.97
1030.77 1031.36 1031.90 1032.41 1032.53 1032.94 1033.16 1033.17 1033.55 1034.07 1034.19 1034.11 1033.71 1033.41 1033.15 1033.29 1033.32 1033.36 1033.37 1033.39 1033.33 1033.16 1032.79 1032.93 1032.70 1032.33 1032.08 1032.00 1031.72 1031.60 1031.13 1030.64 1030.03 1029.61 1029.22 1028.65 1027.95 1027.02 1026.12 1025.08 1024.06 1023.19 1022.27
1030.77 1031.37 1031.80 1032.12 1032.24 1032.41 1032.77 1032.87 1033.17 1033.33 1033.43 1033.36 1033.14 1032.99 1032.84 1032.77 1032.72 1032.70 1032.74 1032.73 1032.72 1032.30 1031.98 1032.17 1031.89 1031.42 1031.07 1030.89 1030.76 1030.72 1030.61 1029.92 1029.48 1029.41 1028.93 1028.24 1027.52 1026.72 1025.96 1025.09 1024.26 1023.37 1022.60
1030.53 1030.93 1031.34 1031.59 1031.81 1032.09 1032.29 1032.58 1032.45 1032.34 1032.33 1032.27 1032.27 1032.19 1032.11 1031.98 1031.97 1031.95 1031.97 1031.84 1031.82 1031.53 1031.43 1031.30 1031.10 1030.76 1030.27 1029.97 1029.78 1029.63 1029.46 1029.05 1028.73 1028.33 1028.14 1027.62 1026.93 1026.11 1025.50 1024.81 1024.14 1023.45 1022.91
1029.87 1030.30 1030.65 1030.85 1031.19 1031.28 1031.47 1031.47 1031.50 1031.54 1031.53 1031.32 1031.10 1031.06 1031.00 1031.09 1031.12 1031.09 1031.10 1031.13 1031.01 1030.98 1030.53 1030.32 1030.16 1029.88 1029.51 1029.18 1028.89 1028.56 1028.15 1027.84 1027.57 1026.91 1026.72 1026.50 1025.97 1025.36 1024.91 1024.52 1023.88 1023.27 1022.82
1029.32 1029.65 1029.86 1030.09 1030.35 1030.50 1030.71 1030.60 1030.56 1030.50 1030.42 1030.31 1030.19 1030.00 1029.94 1030.02 1030.07 1030.14 1030.08 1030.26 1030.08 1029.86 1029.73 1029.58 1029.36 1029.09 1028.76 1028.34 1027.88 1027.46 1027.05 1026.62 1025.99 1025.23 1024.85 1024.86 1024.98 1024.60 1024.13 1023.78 1023.26 1022.97 1022.63
Thickness
5499 5496 5493 5489 5486 5482 5478 5474 5471 5468 5465 5462 5459 5456 5452 5449 5446 5445 5444 5440 5437 5434 5430 5427 5423 5422 5420 5416 5414 5413 5412 5411 5418 5431 5427 5432 5436 5441 5445 5449 5454 5461 5468
5486 5483 5479 5475 5471 5466 5462 5459 5456 5453 5450 5447 5444 5438 5435 5432 5430 5428 5426 5424 5421 5418 5414 5410 5407 5406 5403 5398 5396 5396 5395 5394 5394 5406 5408 5412 5414 5419 5426 5433 5439 5444 5450
5471 5467 5463 5459 5454 5450 5446 5442 5440 5439 5436 5432 5427 5421 5419 5416 5414 5411 5409 5408 5405 5401 5397 5394 5390 5388 5384 5383 5377 5374 5375 5374 5374 5380 5389 5389 5393 5398 5407 5414 5420 5426 5431
5457 5452 5447 5442 5437 5433 5430 5427 5427 5426 5421 5417 5411 5404 5403 5402 5399 5396 5393 5389 5386 5383 5380 5378 5374 5367 5363 5363 5362 5356 5357 5355 5357 5360 5365 5366 5368 5375 5379 5387 5404 5402 5413
5443 5437 5431 5425 5422 5419 5416 5414 5412 5411 5406 5398 5395 5388 5387 5387 5384 5379 5376 5373 5369 5367 5363 5357 5354 5348 5344 5343 5340 5337 5335 5333 5334 5335 5339 5340 5342 5346 5349 5357 5368 5385 5395
5428 5422 5417 5412 5408 5405 5402 5400 5397 5394 5389 5384 5376 5370 5369 5370 5365 5361 5357 5356 5351 5350 5347 5339 5335 5331 5327 5325 5319 5316 5311 5311 5309 5308 5307 5309 5310 5308 5314 5320 5330 5345 5373
5411 5405 5401 5397 5394 5390 5387 5385 5382 5377 5373 5367 5363 5355 5352 5353 5350 5343 5339 5338 5334 5331 5328 5322 5317 5311 5309 5308 5303 5297 5289 5283 5279 5278 5277 5273 5274 5273 5280 5286 5288 5298 5319
5395 5390 5384 5382 5378 5373 5370 5368 5367 5362 5356 5351 5346 5341 5337 5337 5336 5327 5320 5317 5314 5310 5306 5300 5295 5291 5290 5290 5283 5274 5267 5259 5254 5248 5241 5238 5237 5237 5237 5240 5243 5255 5276
5379 5374 5370 5367 5363 5360 5358 5353 5351 5346 5342 5336 5330 5324 5320 5315 5319 5311 5302 5298 5296 5289 5283 5277 5272 5269 5268 5266 5256 5248 5240 5234 5224 5215 5210 5207 5204 5200 5198 5204 5205 5209 5229
5363 5359 5355 5352 5349 5345 5342 5338 5334 5331 5326 5322 5316 5307 5302 5298 5298 5290 5285 5280 5275 5267 5261 5255 5250 5246 5240 5235 5227 5221 5213 5209 5202 5198 5191 5187 5183 5179 5172 5166 5169 5175 5182
5346 5342 5341 5338 5333 5330 5326 5323 5318 5313 5308 5304 5299 5290 5285 5282 5275 5268 5267 5262 5255 5242 5238 5230 5223 5218 5212 5206 5199 5192 5184 5179 5173 5167 5165 5163 5161 5159 5155 5151 5147 5148 5157
5331 5325 5326 5323 5319 5314 5310 5306 5303 5300 5291 5286 5279 5272 5266 5259 5252 5248 5246 5240 5232 5220 5213 5204 5198 5194 5188 5179 5172 5163 5154 5146 5140 5136 5134 5134 5137 5139 5140 5140 5139 5141 5139
5319 5312 5309 5308 5307 5300 5295 5289 5285 5281 5273 5267 5261 5254 5246 5237 5232 5229 5223 5215 5208 5198 5189 5182 5177 5169 5160 5149 5142 5134 5125 5119 5114 5111 5109 5110 5111 5114 5120 5127 5129 5132 5138
5303 5299 5294 5293 5292 5287 5279 5275 5268 5263 5256 5251 5245 5233 5223 5219 5216 5211 5202 5194 5185 5174 5166 5158 5151 5142 5134 5124 5114 5107 5100 5095 5091 5089 5091 5094 5097 5099 5101 5105 5113 5122 5132
5291 5286 5282 5278 5276 5271 5264 5260 5255 5249 5243 5233 5221 5214 5204 5198 5197 5194 5187 5176 5168 5158 5146 5137 5128 5120 5110 5100 5091 5086 5082 5078 5076 5075 5077 5080 5082 5084 5086 5089 5093 5100 5102
5285 5278 5273 5268 5263 5258 5252 5245 5241 5236 5228 5219 5211 5202 5195 5189 5183 5175 5167 5156 5149 5138 5122 5109 5103 5097 5089 5083 5076 5071 5068 5066 5064 5064 5064 5065 5066 5068 5071 5076 5078 5082 5089
5273 5266 5261 5255 5248 5241 5233 5227 5217 5213 5209 5202 5194 5188 5180 5173 5165 5155 5147 5135 5127 5117 5100 5090 5083 5076 5071 5068 5063 5059 5057 5055 5054 5053 5051 5051 5052 5053 5056 5061 5065 5070 5076
5259 5253 5246 5238 5232 5226 5218 5208 5199 5190 5181 5175 5173 5167 5160 5154 5146 5137 5127 5115 5102 5096 5085 5075 5067 5063 5060 5057 5054 5050 5049 5047 5045 5043 5041 5040 5040 5041 5044 5048 5051 5055 5061
5245 5238 5233 5227 5220 5213 5204 5194 5184 5174 5165 5156 5151 5148 5140 5135 5128 5119 5110 5096 5085 5077 5070 5063 5058 5055 5051 5048 5045 5042 5040 5038 5037 5034 5033 5031 5031 5030 5032 5035 5038 5042 5048
5234 5230 5224 5215 5205 5197 5189 5180 5170 5161 5151 5141 5132 5126 5122 5114 5104 5097 5092 5084 5075 5068 5061 5055 5052 5048 5045 5042 5039 5037 5034 5032 5030 5027 5025 5023 5022 5021 5022 5025 5027 5030 5035
5225 5217 5212 5202 5195 5186 5178 5169 5159 5148 5138 5128 5122 5118 5116 5103 5094 5086 5080 5074 5068 5061 5055 5050 5047 5043 5040 5037 5033 5029 5026 5025 5023 5020 5016 5015 5014 5014 5014 5015 5017 5019 5022
5217 5209 5200 5194 5186 5178 5168 5158 5148 5138 5128 5120 5115 5109 5108 5097 5087 5080 5074 5068 5063 5057 5052 5046 5041 5038 5035 5032 5028 5023 5020 5018 5017 5014 5010 5008 5006 5006 5006 5007 5008 5008 5010
5208 5200 5191 5183 5176 5168 5158 5147 5137 5128 5120 5112 5106 5100 5093 5086 5080 5075 5069 5063 5057 5051 5046 5041 5036 5032 5029 5026 5023 5019 5014 5012 5011 5009 5005 5002 5001 4999 4997 4998 4998 4998 4999
5199 5192 5185 5177 5167 5159 5151 5141 5131 5124 5116 5109 5100 5093 5087 5081 5074 5069 5064 5058 5051 5046 5040 5035 5031 5027 5023 5020 5017 5013 5010 5008 5005 5003 5000 4996 4994 4993 4991 4989 4987 4987 4986
5193 5186 5178 5171 5163 5156 5146 5136 5127 5117 5109 5104 5098 5090 5084 5076 5069 5064 5059 5053 5046 5040 5034 5029 5025 5022 5018 5015 5012 5009 5006 5002 5000 4999 4996 4992 4988 4986 4983 4977 4975 4975 4972
5187 5179 5172 5164 5156 5147 5138 5131 5122 5114 5108 5101 5094 5088 5081 5073 5066 5060 5054 5048 5041 5035 5029 5023 5019 5015 5012 5009 5006 5004 5001 4997 4995 4994 4991 4987 4983 4979 4974 4967 4963 4958 4955